Regional Weather Roundup
Issued by NWS

Home | Current Version | Previous Version | Graphics & Text | Print | Product List | Glossary On
Versions: 1 2 3 4 5 6 7 8 9 10 11 12 13 14 15 16 17 18 19 20 21 22 23 24 25 26 27 28 29 30 31 32 33 34 35 36 37 38 39 40 41 42 43 44 45 46 47 48 49 50
000
ASUS45 KTFX 210519
RWRMT
MONTANA HOURLY WEATHER ROUNDUP
NATIONAL WEATHER SERVICE GREAT FALLS MT
1119 PM MDT SAT SEP 20 2014

NOTE: "FAIR" INDICATES FEW OR NO CLOUDS BELOW 12000 FEET WITH NO
SIGNIFICANT WEATHER AND/OR OBSTRUCTIONS TO VISIBILITY.

* THESE STATIONS ARE NOT UNDER NWS QUALITY CONTROL. THEY DO NOT
   REPORT WEATHER SUCH AS PRECIPITATION OR FOG.

MTZ001>007-043-210600-
WEST OF THE DIVIDE
CITY           SKY/WX    TMP DP  RH WIND       PRES   REMARKS
KALISPELL      CLEAR     54  46  74 NW5       30.15S
MISSOULA       CLEAR     57  41  55 CALM      30.16R
BUTTE          CLEAR     52  37  57 S3        30.30R
MULLAN PASS    CLEAR     59  36  42 SE9       30.27S
* ESSEX        N/A       55  42  62 S7G12      N/A
* LINCOLN      N/A       58  40  51 E7         N/A
* LOOKOUT PASS N/A       56  39  53 SE5        N/A
* POLSON       N/A       58  41  53 N/A        N/A
* RONAN APT    CLEAR     48  41  77 N/A        N/A
* SEELEY LAKE  N/A       46  34  63 N2         N/A
* THOMP F APT  CLEAR     56  38  51 NE4G11     N/A
$$

MTZ008-052>055-210600-
SOUTHWEST MONTANA
CITY           SKY/WX    TMP DP  RH WIND       PRES   REMARKS
BOZEMAN        CLEAR     54  41  62 NW7       30.25S
DILLON         CLEAR     52  39  61 E3        30.25R
W YELLOWSTONE  CLEAR     41  39  93 CALM      30.35R
* THREE FORKS  CLEAR     45  45 100 N/A        N/A
* BOULDER HILL N/A       53  33  47 N/A        N/A
* MONIDA PASS  N/A       51  37  59 W5         N/A
* RAYNOLDS PAS N/A       49  23  36 E3         N/A
* WHITEHALL    N/A       56  41  57 NW5        N/A
* WISE RIVER   N/A       52  30  43 SE5G12     N/A
$$

MTZ009>010-012-014-046-048-049-054-210600-
EAST SLOPES AND CENTRAL MONTANA
CITY           SKY/WX    TMP DP  RH WIND       PRES   REMARKS
CUT BANK       CLEAR     50  39  66 NE3       30.28R
GREAT FALLS    CLEAR     54  41  62 E9        30.26S
HELENA         CLEAR     61  41  48 W8        30.23R
MALMSTROM AFB  CLEAR     57  41  55 SE2       30.27S
* CONRAD       CLEAR     52  45  77 N/A        N/A
* EAST GLACIER N/A       52  43  72 N1         N/A
* MONARCH      N/A       46  41  83 E1         N/A
* PENDROY      N/A       50  42  74 SW4        N/A
* ROGERS PASS  N/A       50  40  69 NW4        N/A
* SAINT MARY   N/A       55  44  67 NE3G8      N/A
* SWEET GRASS  N/A       54  38  55 SW12       N/A
* WHITE SULPH  N/A       54  40  59 NE7G12     N/A
$$

MTZ011-013-016-021-035-040-045-047-050-051-210600-
NORTH CENTRAL MONTANA
CITY           SKY/WX    TMP DP  RH WIND       PRES   REMARKS
HAVRE          CLEAR     52  39  61 CALM      30.25R
LEWISTOWN      CLEAR     50  43  77 SE7       30.30R
* CHINOOK      CLEAR     46  41  83 CALM      30.25R
* FORT BENTON  CLEAR     55  39  55 CALM      30.26R
* CHESTER      N/A       51  37  59 NE2        N/A
* DENTON       N/A       47  43  86 SW1        N/A
* GEYSER       N/A       46  44  93 SE4        N/A
* JUDITH GAP   N/A       48  43  83 SW5        N/A
* LOMA         N/A       58  38  47 NE3        N/A
$$

MTZ017>020-022>027-061-062-210600-
NORTHEAST MONTANA
CITY           SKY/WX    TMP DP  RH WIND       PRES   REMARKS
GLASGOW        CLEAR     52  36  55 N5        30.23R
JORDAN         CLEAR     48  41  77 W6        30.26R
SIDNEY         CLEAR     48  36  63 W7        30.23R
WOLF POINT     CLEAR     46  37  71 NW3       30.22R
* BEAVER HILL  N/A       53  31  43 NW1        N/A
* CIRCLE       N/A       48  38  68 N/A        N/A
* LINDSAY DVD  N/A       43  35  73 W6         N/A
$$

MTZ028>042-056>058-210600-
SOUTHCENTRAL AND SOUTHEAST MONTANA
CITY           SKY/WX    TMP DP  RH WIND       PRES   REMARKS
BAKER          CLEAR     50  36  59 NW6       30.26R
BILLINGS       CLEAR     61  43  52 N5        30.28R
LIVINGSTON     CLEAR     57  41  55 E10       30.27R
MILES CITY     CLEAR     52  37  57 NW8       30.26R
* LAUREL APT   CLEAR     55  39  55 N/A        N/A
* ROUNDUP APT  CLEAR     55  39  55 N/A        N/A
* ALZADA       N/A       50  37  61 W2         N/A
* HYSHAM       N/A       56  38  51 E2         N/A
* LAME DEER    N/A       57  36  46 NE8        N/A
* REED POINT   N/A       50  45  83 N/A        N/A
* ROSCOE HILL  N/A       54  34  47 S3         N/A
$$

REGIONAL REPORTS...DAKOTAS
CITY           SKY/WX    TMP DP  RH WIND       PRES   REMARKS
WILLISTON      CLEAR     52  36  55 NW9       30.19R
DICKINSON      CLEAR     48  36  63 NW8       30.19R
BEACH          N/A       41  32  70 N5        30.24R
CROSBY         CLEAR     50  41  71 W9        30.17R
TIOGA          CLEAR     46  39  77 NW9       30.19R
WATFORD CITY   CLEAR     48  36  63 W6        30.18R
BISMARCK       CLEAR     57  39  51 NW12      30.14R
GRAND FORKS    MOCLDY    54  50  86 NW8       29.97R
FARGO          FAIR      54  48  80 NW8       29.96R
BUFFALO SD     CLEAR     52  36  55 N18       30.19R
RAPID CITY     CLEAR     55  39  55 N12       30.26R
$$

REGIONAL REPORTS...WYOMING/IDAHO/WASHINGTON
CITY           SKY/WX    TMP DP  RH WIND       PRES   REMARKS
GILLETTE       CLEAR     43  37  79 S5        30.31R
SHERIDAN       CLEAR     46  41  83 CALM      30.30R
CODY           CLEAR    N/A N/A N/A N/A        N/A
YELLOWSTONE LA CLEAR     39  36  89 W3        30.43R
SALMON         CLEAR     54  43  67 S5        30.14R
MULLAN PASS    CLEAR     59  36  42 SE9       30.27S
SAND POINT     CLEAR     54  45  72 CALM      30.10R
SPOKANE        CLEAR     66  45  47 NE6       30.06R
$$

REGIONAL REPORTS...ALBERTA
CITY           SKY/WX    TMP DP  RH WIND       PRES   REMARKS
CALGARY        N/A       55  41  59 S3        30.22S
LETHBRIDGE     CLEAR     48  41  77 S8        30.23S
MEDICINE HAT   CLEAR     46  41  83 S2        30.23R
EDMONTON       N/A       48  41  77 S8        30.11S
WATERTON GATE  N/A       43  43 100 SW5        N/A
CARDSTON       N/A       52  43  72 SW5        N/A
MILK RIVER     N/A       45  39  80 CALM       N/A
$$

REGIONAL REPORTS...SASKATCHEWAN
CITY           SKY/WX    TMP DP  RH WIND       PRES   REMARKS
SWIFT CURRENT  CLEAR     48  36  63 SW9       30.22R
REGINA         N/A       45  41  86 NW7       30.15R
VAL MARIE      N/A       41  36  82 NW5        N/A
ASSINIBOIA     N/A       45  36  71 W6         N/A
CORONACH       N/A       41  36  82 W3         N/A

$$



USA.gov is the U.S. government's official web portal to all federal, state and local government web resources and services.